Weather History for MZBZ - March, 2013

Change the Weather History Date:

Saturday, March 9, 2013

  Actual Average Record
Temperature  
Mean Temperature 74 °F -  
Max Temperature 82 °F 86 °F 93 °F (2005)
Min Temperature 66 °F 72 °F 62 °F (2008)
Cooling Degree Days 9    
Growing Degree Days 24 (Base 50)    
Moisture  
Dew Point 64 °F    
Average Humidity 64    
Maximum Humidity 94    
Minimum Humidity 46    
Precipitation  
Precipitation 0.00 in 0.07 in - ()
Sea Level Pressure  
Sea Level Pressure 30.01 in    
Wind  
Wind Speed 5 mph ()    
Max Wind Speed 12 mph    
Max Gust Speed -    
Visibility 9.0 miles    
Events      
Averages and records for this station are not official NWS values.
T = Trace of Precipitation, MM = Missing Value Source: Averaged Metar Reports

Daily Weather History Graph

Daily Weather History Graph

Search for Another Location

Airport or City:

Trip Planner

Search our weather history database for the weather conditions in past years. The results will help you decide how hot, cold, wet, or windy it might be!

Date:

Astronomy

Mar. 09, 2013 Rise Set
Actual Time 6:05 AM CST 6:01 PM CST
Civil Twilight 5:43 AM CST 6:23 PM CST
Nautical Twilight 5:18 AM CST 6:48 PM CST
Astronomical Twilight 4:53 AM CST 7:13 PM CST
Moon 4:14 AM CST (3/9) 4:14 PM CST (3/9)
Length of Visible Light 12h 39m
Length of Day
11h 56m
Waning Crescent, 5% of the Moon is Illuminated
Mar 9
Waning Crescent
Mar 11
New
Mar 19
First Quarter
Mar 27
Full
Apr 2
Last Quarter

Hourly Weather History & Observations

Time (CST) Temp. Heat Index Dew Point Humidity Pressure Visibility Wind Dir Wind Speed Gust Speed Precip Events Conditions
12:00 AM 72 °F - 66 °F 75% 30.06 in 12 mi ESE 4.6 mph - -   Clear
3:00 AM 69 °F - 64 °F 81% 30.03 in 12 mi Calm Calm - -   Clear
5:00 AM 66.2 °F - 64.4 °F 94% 30.01 in 6.2 mi East 3.5 mph - N/A   Partly Cloudy
6:00 AM 66 °F - 60 °F 77% 30.02 in 12 mi Calm Calm - -   Scattered Clouds
6:00 AM 66.2 °F - 60.8 °F 83% 30.02 in 6.2 mi Calm Calm - N/A   Partly Cloudy
7:00 AM 71.6 °F - 64.4 °F 78% 30.03 in 6.2 mi ESE 4.6 mph - N/A   Partly Cloudy
8:00 AM 77.0 °F - 66.2 °F 69% 30.03 in 6.2 mi ESE 6.9 mph - N/A   Partly Cloudy
9:00 AM 79 °F - 65 °F 55% 30.05 in 16 mi ESE 8.1 mph - -   Scattered Clouds
9:00 AM 78.8 °F - 66.2 °F 65% 30.04 in 6.2 mi ESE 8.1 mph - N/A   Partly Cloudy
10:00 AM 78.8 °F - 66.2 °F 65% 30.07 in 6.2 mi East 8.1 mph - N/A   Scattered Clouds
11:00 AM 78.8 °F - 64.4 °F 61% 30.06 in 6.2 mi East 10.4 mph - N/A   Scattered Clouds
12:00 PM 80 °F - 64 °F 48% 30.03 in 16 mi East 11.5 mph - -   Partly Cloudy
12:00 PM 80.6 °F 82.3 °F 64.4 °F 58% 30.03 in 6.2 mi East 11.5 mph - N/A   Scattered Clouds
1:00 PM 82.4 °F 83.4 °F 62.6 °F 51% 29.99 in 6.2 mi ENE 11.5 mph - N/A   Scattered Clouds
2:00 PM 80.6 °F 81.5 °F 60.8 °F 51% 29.96 in 6.2 mi East 11.5 mph - N/A   Partly Cloudy
3:00 PM 81 °F - 64 °F 46% 29.95 in 16 mi East 10.4 mph - -   Scattered Clouds
3:00 PM 80.6 °F 82.3 °F 64.4 °F 58% 29.95 in 6.2 mi East 10.4 mph - N/A   Partly Cloudy
4:00 PM 80.6 °F 82.3 °F 64.4 °F 58% 29.93 in 6.2 mi ENE 11.5 mph - N/A   Partly Cloudy
5:00 PM 80.6 °F 82.3 °F 64.4 °F 58% 29.95 in 6.2 mi East 9.2 mph - N/A   Scattered Clouds
6:00 PM 78 °F - 66 °F 57% 29.96 in 16 mi East 6.9 mph - -   Partly Cloudy
6:00 PM 78.8 °F - 66.2 °F 65% 29.95 in 6.2 mi East 6.9 mph - N/A   Scattered Clouds
9:00 PM 75 °F - 65 °F 64% 30.00 in 12 mi East 8.1 mph - -   Scattered Clouds